TimeMST,TemperatureF,Dew PointF,Humidity,Sea Level PressureIn,VisibilityMPH,Wind Direction,Wind SpeedMPH,Gust SpeedMPH,PrecipitationIn,Events,Conditions,WindDirDegrees,DateUTC
12:55 AM,5.0,1.9,87,30.20,10.0,Calm,Calm,-,N/A,,Clear,0,2013-02-19 07:55:00
1:55 AM,1.9,-0.9,88,30.20,10.0,North,3.5,-,N/A,,Clear,360,2013-02-19 08:55:00
2:55 AM,3.0,1.0,91,30.18,10.0,North,5.8,-,N/A,,Clear,350,2013-02-19 09:55:00
3:55 AM,1.9,-0.9,88,30.17,10.0,North,4.6,-,N/A,,Clear,350,2013-02-19 10:55:00
4:55 AM,1.0,-2.0,87,30.19,10.0,Calm,Calm,-,N/A,,Clear,0,2013-02-19 11:55:00
5:55 AM,1.0,-2.0,87,30.22,10.0,Calm,Calm,-,N/A,,Clear,0,2013-02-19 12:55:00
6:55 AM,1.9,-0.9,88,30.25,10.0,Calm,Calm,-,N/A,,Clear,0,2013-02-19 13:55:00
7:55 AM,19.0,15.1,85,30.19,10.0,SE,3.5,-,N/A,,Clear,130,2013-02-19 14:55:00
8:55 AM,28.0,15.1,58,30.17,10.0,SSE,16.1,23.0,N/A,,Clear,160,2013-02-19 15:55:00
9:55 AM,30.0,12.9,49,30.15,10.0,SSE,21.9,-,N/A,,Clear,150,2013-02-19 16:55:00
10:55 AM,33.1,14.0,46,30.14,10.0,SSE,21.9,29.9,N/A,,Clear,150,2013-02-19 17:55:00
11:55 AM,35.1,12.0,39,30.09,10.0,SSE,20.7,29.9,N/A,,Clear,150,2013-02-19 18:55:00
12:55 PM,36.0,12.0,37,30.05,10.0,SE,25.3,31.1,N/A,,Clear,140,2013-02-19 19:55:00
1:55 PM,39.0,12.9,34,30.01,10.0,SSE,25.3,32.2,N/A,,Clear,150,2013-02-19 20:55:00
2:55 PM,41.0,10.9,29,29.98,10.0,SSE,25.3,31.1,N/A,,Clear,150,2013-02-19 21:55:00
3:55 PM,39.0,10.9,32,29.98,10.0,SE,20.7,28.8,N/A,,Clear,140,2013-02-19 22:55:00
5:55 PM,37.0,12.9,37,29.96,10.0,SE,10.4,-,N/A,,Clear,130,2013-02-20 00:55:00
6:55 PM,35.1,15.1,44,29.97,10.0,SE,15.0,-,N/A,,Clear,140,2013-02-20 01:55:00
7:55 PM,34.0,15.1,46,29.90,10.0,SE,17.3,26.5,N/A,,Clear,130,2013-02-20 02:55:00
8:55 PM,33.1,16.0,50,29.86,10.0,SE,21.9,-,N/A,,Clear,140,2013-02-20 03:55:00
9:55 PM,30.0,16.0,56,29.86,10.0,SE,18.4,26.5,N/A,,Clear,130,2013-02-20 04:55:00
11:55 PM,28.0,16.0,61,29.81,10.0,SE,18.4,-,N/A,,Clear,130,2013-02-20 06:55:00